Погода в Прохладном

Россия / Свердловская область     56°44′50″N   60°56′19″E
темп.,
°C
ветер,
м/с
пор.,
м/с
влажн.,
%
обл.,
%
осадки,
мм/ч
давл.,
гПа
погр.,
м
9 марта, вт
вт923:00−8юз5158167 0.8 1001801
02:00−8зюз514840 0.0 1002658
05:00−10юз4119018 0.0 1003340
08:00−10ююз2294100 0.0 100268
11:00−6ссз1390100 0.3 1003409
14:00−5з4679100 0.1 10051041
17:00−5з477883 0.1 10081123
20:00−11зсз239044 0.0 101021
10 марта, ср
ср1023:00−14з119370 0.0 101120
02:00−15св1194100 0.0 101020
05:00−14всв2294100 0.0 100826
08:00−13всв3696100 0.2 1006240
11:00−10св4894100 1.1 1004370
14:00−9св61094100 1.4 1002545
17:00−10св61194100 2.9 1000644
20:00−13ссв71493100 1.4 1001665
11 марта, чт
чт1123:00−15ссв71493100 2.3 1002658
02:00−17с61394100 0.7 1004637
05:00−18с61294100 1.1 1007578
08:00−21ссз51293100 0.2 1009433
11:00−20ссз598897 0.2 1011391
14:00−14сз47802 0.0 1011759
17:00−14зсз588849 0.1 10121005
20:00−16зсз41094100 0.3 1013701
12 марта, пт
пт1223:00−17зсз399599 0.4 1014453
02:00−15з31195100 0.3 1013577
05:00−11зсз51093100 0.9 1013778
08:00−13зсз51289100 0.1 1015723
11:00−12зсз61187100 0.1 1016756
14:00−10з7118398 0.0 1017844
17:00−9з6128390 0.0 1017817
20:00−12з5158774 0.0 1019684
13 марта, сб
сб1323:00−11з5148784 0.0 1020669
02:00−12з5148894 0.0 1020601
05:00−12з5148891 0.0 1021536
08:00−12з5148988 0.0 1022546
11:00−9з6128894 0.0 1023674
14:00−6зсз61187100 0.0 1024732
17:00−6зсз51186100 0.1 1024697
20:00−8зсз51388100 0.0 1024504